DECAYED

ASTRO H DEB, 41442 (Decayed)

Orbit data source: Space-Track

ASTRO H DEB, 41442 was space debris in LEO originally from a Japanese launch on Wed, 17 Feb 2016 UTC launched from the Tanegashima Space Center (TNSTA). Debris objects in space refer to the collection of defunct objects orbiting the Earth. Examples of debris include non-operational satellites, rocket bodies, and fragments generated from explosions, collisions, or faulty payload assembly.

Not visible in the next 10 days
ASTRO H DEB details
Identifier
41442, 2016-012L
Orbit
Decayed
Last TLE update2 months ago
Origin
Flag of JPJAXA/ISASJ (JP / JPN)
ManufacturerUnknown
MissionDecayed spacecraft
Bus & MotorUnknown
MassUnknown
Launch date (UTC)
2016-02-17 (9 years ago)
Launch vehicleUnknown
Launch site
Tanegashima Space Center (TNSTA)
Object type
Payload
Rocket body
Debris
Shape & HBRUnknown
Radar Cross Section1.900 m², Large (>1 m²)

Expand to show TLE details & history

TLE from 2 months ago
0 ASTRO H DEB
1 41442U 16012L   24292.85535606  .22936264 -40466-5  18819-2 0  9991
2 41442  30.9758 142.5786 0004736 277.6116 190.0773 16.38616980478017
Epoch: 2024-10-18T20:31Z
Definitive object data (Epoch: 2024-10-18T20:31:42.763Z)
Latitude29.50344°
Longitude-82.7574°
Altitude171.645 km
Speed7.807 km/s
True Right ascension16h 51m 57s
True Declination29° 20' 35"
Sunlit
Object was in daylight at TLE epoch
Visualization observer readout
Observer readout values are unavailable because the object's trajectory could not be propagated. This is usually caused when the trajectory data is faulty or the object's orbit has decayed.
Visualization observer readout
Observer readout values are unavailable because the object's trajectory could not be propagated. This is usually caused when the trajectory data is faulty or the object's orbit has decayed.
Orbital elements
Apogee altitude176.647 km
Perigee altitude170.441 km
Semi-major axis6,551.681 km
Eccentricity0.0004736
Inclination30.9758°
RAAN142.5786°
Arg. of periapsis277.6116°
True anomaly190.06781°
Mean anomaly190.0773°
Eccentric anomaly190.07255°
Mean motion4.09274 °/min
BSTAR0.0018819
Orbital period87.96 mins
Loading maneuver chart data...
Loading historical data...
Loading historical data...
Loading historical data...
Loading historical data...
Loading historical data...
Loading historical data...
Loading historical data...

ASTRO H DEB Visibility forecast

Observer location: undefined°, undefined

This satellite is decayed
Span
Click to sort rows by Start time (UTC) header in descending order
Start Az.
Max El. time (UTC)
Max El. Az.
Max El.
End time (UTC)
End Az.
|